FW4679 Weather Reports


Display with metric or nautical units.
time (UTC)temp
F
wind
direction
speed
MPH
gust
MPH
rain 1hr
in
rain 24hr
in
rain mn
in
humidity
%
barometer
mb
20260505190007 78 234 12.0 24.0 0.00 0.03 0.03 36 1007.9
20260505184504 77 262 13.0 24.0 0.01 0.03 0.03 40 1008.7
20260505183002 77 236 7.0 21.0 0.01 0.03 0.03 45 1008.5
20260505181600 74 240 6.0 12.0 0.01 0.03 0.03 54 1009.2
20260505180058 73 228 13.0 20.0 0.01 0.03 0.03 51 1009.6
20260505174557 76 243 12.0 24.0 0.00 0.02 0.02 44 1009.8
20260505173104 75 257 9.0 21.0 0.00 0.02 0.02 45 1009.9
20260505171601 75 242 12.0 20.0 0.00 0.02 0.02 44 1009.8
20260505170057 76 211 10.0 19.0 0.00 0.02 0.02 43 1009.6
20260505164555 76 245 10.0 22.0 0.00 0.02 0.02 43 1009.2
20260505163052 76 222 7.0 18.0 0.00 0.02 0.02 43 1009.5
20260505161616 76 273 16.0 24.0 0.00 0.02 0.02 41 1009.8
20260505153050 76 237 15.0 27.0 0.00 0.02 0.02 42 1009.8
20260505151546 75 268 14.0 24.0 0.00 0.02 0.02 43 1010.0
20260505124519 65 231 5.0 11.0 0.00 0.02 0.02 61 1011.4
20260505123017 64 248 7.0 12.0 0.02 0.02 0.02 62 1011.3
20260505121518 62 210 8.0 11.0 0.02 0.02 0.02 65 1011.3
20260505120045 61 227 6.0 10.0 0.02 0.02 0.02 69 1011.3
20260505114513 62 208 8.0 15.0 0.02 0.02 0.02 67 1010.8
20260505113010 0 0.0 0.0 0.00 0.00 0.00 1011.8
20260505111506 0 0.0 0.0 0.00 0.00 0.00 1011.8
20260505101552 0 0.0 0.0 0.00 0.00 0.00 1010.9
20260505100044 0 0.0 0.0 0.00 0.00 0.00 1010.8
20260505094539 0 0.0 0.0 0.00 0.00 0.00 1010.6
20260505093040 0 0.0 0.0 0.00 0.00 0.00 1010.4
20260505091531 0 0.0 0.0 0.00 0.00 0.00 1010.4
20260505090038 0 0.0 0.0 0.00 0.00 0.00 1010.3
20260505084522 0 0.0 0.0 0.00 0.00 0.00 1010.2
20260505083019 62 234 1.0 3.0 0.00 0.00 0.00 55 1010.2
20260505081518 62 234 1.0 4.0 0.00 0.00 0.00 54 1010.4
20260505080019 63 227 0.0 4.0 0.00 0.00 0.00 53 1010.4
20260505074514 63 190 1.0 4.0 0.00 0.00 0.00 52 1010.5
20260505073024 64 198 3.0 6.0 0.00 0.00 0.00 51 1010.3
20260505071517 64 234 5.0 8.0 0.00 0.00 0.00 51 1010.4
20260505070010 64 221 3.0 7.0 0.00 0.00 0.00 51 1010.5
20260505064525 65 213 6.0 12.0 0.00 0.00 0.00 49 1010.4
20260505063009 65 211 6.0 12.0 0.00 0.00 0.00 48 1010.5
20260505061522 65 250 5.0 13.0 0.00 0.00 0.00 48 1010.6
20260505060010 65 210 8.0 12.0 0.00 0.00 0.00 48 1010.6
20260505054506 64 225 5.0 10.0 0.00 0.00 0.00 49 1010.6
20260505053005 64 216 5.0 11.0 0.00 0.00 0.00 49 1010.8
20260505051600 64 226 6.0 10.0 0.00 0.00 0.00 48 1010.8
20260505041559 65 177 4.0 9.0 0.00 0.00 0.00 46 1010.6
20260505040055 65 233 5.0 12.0 0.00 0.00 0.00 46 1010.6
20260505034551 65 216 5.0 10.0 0.00 0.00 0.00 46 1010.6
20260505033053 65 215 5.0 12.0 0.00 0.00 0.00 45 1010.7
20260505031605 66 226 7.0 13.0 0.00 0.00 0.00 45 1010.7
20260505030051 66 211 7.0 12.0 0.00 0.00 0.00 44 1010.7
20260505024549 66 217 6.0 16.0 0.00 0.00 0.00 44 1010.8
20260505023102 67 240 8.0 16.0 0.00 0.00 0.00 43 1010.9
20260505021548 67 205 8.0 15.0 0.00 0.00 0.00 42 1011.0
20260505020047 67 221 7.0 15.0 0.00 0.00 0.00 41 1010.9
20260505014547 67 207 7.0 12.0 0.00 0.00 0.00 40 1010.9
20260505013101 68 195 5.0 12.0 0.00 0.00 0.00 40 1010.7
20260505011546 68 229 5.0 11.0 0.00 0.00 0.00 39 1010.7
20260505010048 68 221 7.0 16.0 0.00 0.00 0.00 39 1010.5
20260505004553 68 216 7.0 14.0 0.00 0.00 0.00 39 1010.5
20260505003044 69 173 5.0 12.0 0.00 0.00 0.00 38 1010.3
20260505001548 70 213 6.0 14.0 0.00 0.00 0.00 37 1010.1
20260505000100 70 192 5.0 14.0 0.00 0.00 0.00 37 1010.1
20260504234542 70 219 8.0 15.0 0.00 0.00 0.00 36 1009.9
20260504233042 71 224 5.0 16.0 0.00 0.00 0.00 35 1009.8
20260504231542 72 244 5.0 15.0 0.00 0.00 0.00 34 1009.9
20260504230100 72 200 8.0 16.0 0.00 0.00 0.00 33 1009.8
20260504224540 73 227 5.0 13.0 0.00 0.00 0.00 33 1009.8
20260504223040 73 214 5.0 12.0 0.00 0.00 0.00 33 1009.8
20260504221550 73 199 10.0 20.0 0.00 0.00 0.00 32 1009.7
20260504220040 73 226 7.0 19.0 0.00 0.00 0.00 32 1009.6
20260504214538 74 231 5.0 18.0 0.00 0.00 0.00 31 1009.6
20260504213043 74 246 9.0 19.0 0.00 0.00 0.00 28 1009.7
20260504211538 73 238 8.0 18.0 0.00 0.00 0.00 32 1009.9
20260504210034 73 273 11.0 16.0 0.00 0.00 0.00 29 1010.0
20260504204534 73 234 5.0 17.0 0.00 0.00 0.00 32 1010.2
20260504203030 73 223 9.0 14.0 0.00 0.00 0.00 33 1010.5
20260504201529 73 232 10.0 20.0 0.00 0.00 0.00 30 1010.6
20260504200027 73 259 13.0 21.0 0.00 0.00 0.00 31 1011.0
20260504194525 72 274 10.0 23.0 0.00 0.00 0.00 32 1011.3
20260504193022 71 268 11.0 23.0 0.00 0.00 0.00 33 1011.3
20260504191524 71 199 10.0 17.0 0.00 0.00 0.00 34 1011.8